Wetterübersicht - Hohenpeißenberg - Ortsteil Bschorrwald     750 m über NN
47°47'26''N 11°00'47''E - - Zeitangaben in MEZ
Datum Donnerstag, 18. August 2022
Aktualisierung von 00:10 Uhr bis 23:50 Uhr alle 10 Minuten.
Zeit 12:53 (-1h = UTC-Zeit)
Temperatur Außen aktuell
22,2 °C
Min.(05:35)
15,4 °C
Max.(12:53)
22,2 °C
Durchschnitt
17,5 °C
Luftfeuchte Außen aktuell
73 %
Min.(12:44)
73 %
Max.(05:04)
93 %
Durchschnitt
89 %
Taupunkt aktuell
17,1 °C
Min.(04:42)
14,2 °C
Max.(12:21)
17,7 °C
Durchschnitt
15,5 °C
Luftdruck
aktuell
1007,4 hPa
fallend

-2,1 hPa/3h
Min.(12:51)
1007,4 hPa
Max.(01:44)
1011,4 hPa
Durchschnitt
1009,8 hPa
-1,9 hPa/1h -2,1 hPa/2h -2,0 hPa/6h -3,8 hPa/12h -- hPa/24h
Solarstrahlung aktuell
559 W/m²
Max.(11:10)
786 W/m²
Durchschnitt
192 W/m²
Wettervorhersage regnerisch
Wettervorhersage VantagePro Meistens wolkig und kühler. Innerhalb der nächsten 12 Stunden zeitweise starke Niederschläge möglich. Windig.
Persönliches Wohlbefinden mäßige Wärmebelastung (25)
Windchill aktuell
22,2
Min.(05:35)
15,4
Max.(12:53)
22,2
Durchschnitt
17,5
Wind Böen aktuell
12,9 (3)
Max-Tag(00:06)
W 24,1 (4)
Durchschnitt
4,3 (1)
Max Wind Böen letzte Stunde
16,1
letzten 3 Stunden
16,1
letzten 6 Stunden
16,1
Windgeschwindigkeit aktuell
6,4 (2)
Max.(00:01)
W 16,1 (3)
Durchschnitt
2,7 (1)
Windrichtung 67 / O-NO dominierend
W-NW
Niederschlag
letzte Stunde 0,0
letzten 6 Stunden 0,0
aktueller Tag 0,2
aktuelle Woche 0,6
aktueller Monat 10,0
letzter Monat 132,6
August Vorjahr 172,2
aktuelles Jahr 559,0
Regen / Jahr 114
Schneehöhe 0,0 23.03.2015 21:45
Trockenzeiten
letzter Regen >0,2 l/m² 18.08.2022 um 00:59 Uhr
Trocken seit 11 Stunden, 54 Minuten
Längste Trockenzeit 05.09.2015, 09:00 Uhr
bis
18.01.2016, 10:43 Uhr
Dauer: 135 Tage, 1 Stunden, 43 Minuten
Dauerfrost
Letzte Dauerfrostperiode 20.04.2022, 04:41 Uhr
bis
20.04.2022, 06:00 Uhr
Dauer: 1 Stunde, 18 Minuten
Längste Dauerfrostperiode 23.01.2010, 11:37 Uhr
bis
16.02.2010, 12:45 Uhr
Dauer: 24 Tage, 1 Stunden, 7 Minuten
Sonne
Sonnenaufgang05:15
Sonnenzenit12:19
Sonnenhöchststand55,226
Sonnenintensität aktuell1134
Sonnenuntergang19:23
Sonnenaufgang morgen05:16 19. August 2022
Tageslänge14:08
Bewölkungsgradsonnig 100
Sonnenschein akt. Tag26 Minuten
Sonnenschein letzte Stunde10
Sonnenschein Woche (bis Vortag)19:53 Stunden
Sonnenschein Monat (bis Vortag)126:48 Stunden
Mond
Alter des Mondes21 Tage, 12 Stunden, 0 Minuten
Mondaufgang22:25
Mondzenit05:17
Monduntergang12:45
Mondphase-57%
(0% = Neumond, 100% = Vollmond)
nächster Vollmond11:00 10. September 2022
nächster Neumond09:18 27. August 2022
Die dargestellten Werte repräsentieren die Daten des aktuellen Tages! Der Luftdruck ist auf Meereshöhe bezogen!
Die Mond-/Sonnen-Daten beziehen sich auf die Standortkoordinaten von 47° 47' 26" Nord - 11° 0' 47" Ost
Zeit --> Mitteleuropäische Zeit
Die Wettervorhersage wurde berechnet - ohne Gewähr!

          Aussen-    Aussen                                                    Wind                              
Zeit     tempera.   Feuchte   Luftdruck   Taupunkt  Windchill      Wind       richtung     Sonne        Regen        
----------------------------------------------------------------------------------------------------------------------------
00:00     17,2      87  1010,5    15,0    17,2     11,3        W       0     0,0   
01:00     17,1      89  1011,0    15,3    17,1     11,3     W-NW       0     0,2   
02:00     16,6      92  1011,2    15,3    16,6      4,8     W-NW       0     0,0   
03:00     16,2      92  1010,3    14,9    16,2      0,0     W-NW       0     0,0   
04:00     15,8      92  1009,9    14,5    15,8      3,2     W-NW       0     0,0   
05:00     15,6      92  1009,0    14,3    15,6      0,0        N       0     0,0   
06:00     15,4      93  1009,4    14,3    15,4      0,0        N      47     0,0   
07:00     16,5      93  1009,8    15,4    16,5      0,0        N      42     0,0   
08:00     17,5      91  1009,9    16,0    17,5      1,6     W-NW     188     0,0   
09:00     18,2      88  1010,0    16,2    18,2      1,6     O-SO     141     0,0   
10:00     18,6      88  1009,5    16,6    18,6      3,2     O-SO     301     0,0   
11:00     19,7      84  1009,5    16,9    19,7      0,0     O-SO     429     0,0   
12:00     20,8      78  1008,9    16,8    20,8      4,8        O     190     0,0   
----------------------------------------------------------------------------------------------------------------------------
Durch.    17,5      89  1009,8    15,5    17,5      2,7                           0,2

Min.      15,4      73  1007,4    14,2    15,4
Zeit       05:35     12:44      12:51       04:42     05:35

Max.      22,2      93  1011,4    17,7                 24,1              786
Zeit       12:53     05:04      01:44       12:21                  00:06                  11:10

© 1999-2016 Werner Krenn / Mischa Thurnherr - Wetterstation Bedien- und Auswertesoftware - V2.98.4

Jahres-Eistage (Tmax < 0°C) 2 Vorjahres-Eistage (Tmax < 0°C) 22
Jahres-Frostage (Tmin < 0°C) 60 Vorjahres-Frostage (Tmin < 0°C) 95
Kalte Tage des Jahres (Tmax < 10°C) 64 Kalte Tage des Vorjahres (Tmax < 10°C) 131
Jahres-Sommertage (Tmax >= 25°C) 51 Vorjahres-Sommertage (Tmax >= 25°C) 40
Heiße Tage des Jahres (Tmax >= 30°C) 10 Heiße Tage Vorjahr (Tmax >= 30°C) 7